Time,TemperatureF,DewpointF,PressureIn,WindDirection,WindDirectionDegrees,WindSpeedMPH,WindSpeedGustMPH,Humidity,HourlyPrecipIn,Conditions,Clouds,dailyrainin,SoftwareType,DateUTC
2013-11-20 00:12:00,12.0,8.0,30.02,ENE,69,5.0,10.0,84,0.00,,,0.00,,2013-11-20 09:12:00,
2013-11-20 00:21:00,12.0,8.0,30.02,NE,34,3.0,9.0,84,0.00,,,0.00,,2013-11-20 09:21:00,
2013-11-20 00:53:00,12.0,8.0,30.02,ENE,65,5.0,13.0,85,0.00,,,0.00,,2013-11-20 09:53:00,
2013-11-20 01:12:00,12.0,8.0,30.02,East,87,6.0,12.0,85,0.00,,,0.00,,2013-11-20 10:12:00,
2013-11-20 01:23:00,12.0,8.0,30.02,ENE,73,5.0,12.0,85,0.00,,,0.00,,2013-11-20 10:23:00,
2013-11-20 01:43:00,12.0,8.0,30.02,ENE,68,5.0,12.0,84,0.00,,,0.00,,2013-11-20 10:43:00,
2013-11-20 01:53:00,11.0,7.0,30.03,East,80,6.0,14.0,84,0.00,,,0.00,,2013-11-20 10:53:00,
2013-11-20 02:22:00,11.0,7.0,30.03,ENE,73,6.0,12.0,84,0.00,,,0.00,,2013-11-20 11:22:00,
2013-11-20 02:42:00,11.0,7.0,30.03,ENE,74,2.0,12.0,83,0.00,,,0.00,,2013-11-20 11:42:00,
2013-11-20 02:52:00,11.0,7.0,30.03,East,80,3.0,10.0,83,0.00,,,0.00,,2013-11-20 11:52:00,
2013-11-20 03:11:00,11.0,7.0,30.03,East,80,2.0,10.0,84,0.00,,,0.00,,2013-11-20 12:11:00,
2013-11-20 03:21:00,11.0,7.0,30.03,East,94,2.0,10.0,83,0.00,,,0.00,,2013-11-20 12:21:00,
2013-11-20 03:42:00,11.0,6.0,30.04,East,82,2.0,9.0,80,0.00,,,0.00,,2013-11-20 12:42:00,
2013-11-20 03:52:00,11.0,6.0,30.05,East,84,3.0,10.0,80,0.00,,,0.00,,2013-11-20 12:52:00,
2013-11-20 04:11:00,11.0,6.0,30.05,East,81,1.0,9.0,79,0.00,,,0.00,,2013-11-20 13:11:00,
2013-11-20 04:21:00,11.0,6.0,30.05,East,85,2.0,8.0,79,0.00,,,0.00,,2013-11-20 13:21:00,
2013-11-20 04:42:00,10.0,5.0,30.05,ENE,72,2.0,7.0,80,0.00,,,0.00,,2013-11-20 13:42:00,
2013-11-20 04:52:00,10.0,5.0,30.05,East,96,3.0,7.0,80,0.00,,,0.00,,2013-11-20 13:52:00,
2013-11-20 05:11:00,10.0,5.0,30.05,East,101,1.0,7.0,80,0.00,,,0.00,,2013-11-20 14:11:00,
2013-11-20 05:22:00,10.0,5.0,30.05,East,80,1.0,6.0,81,0.00,,,0.00,,2013-11-20 14:22:00,
2013-11-20 05:42:00,10.0,5.0,30.06,East,100,1.0,8.0,79,0.00,,,0.00,,2013-11-20 14:42:00,
2013-11-20 05:52:00,10.0,5.0,30.06,ENE,75,2.0,7.0,78,0.00,,,0.00,,2013-11-20 14:52:00,
2013-11-20 06:11:00,9.0,4.0,30.06,ENE,58,3.0,8.0,78,0.00,,,0.00,,2013-11-20 15:11:00,
2013-11-20 06:21:00,9.0,4.0,30.06,East,80,1.0,8.0,79,0.00,,,0.00,,2013-11-20 15:21:00,
2013-11-20 06:43:00,9.0,4.0,30.07,ENE,71,3.0,9.0,81,0.00,,,0.00,,2013-11-20 15:43:00,
2013-11-20 06:53:00,9.0,4.0,30.07,East,96,3.0,9.0,81,0.00,,,0.00,,2013-11-20 15:53:00,
2013-11-20 07:23:00,8.0,4.0,30.06,East,82,3.0,7.0,82,0.00,,,0.00,,2013-11-20 16:23:00,
2013-11-20 07:43:00,8.0,4.0,30.06,ENE,61,1.0,6.0,82,0.00,,,0.00,,2013-11-20 16:43:00,
2013-11-20 07:52:00,8.0,4.0,30.07,East,82,2.0,8.0,82,0.00,,,0.00,,2013-11-20 16:52:00,
2013-11-20 08:22:00,8.0,3.0,30.07,East,85,1.0,6.0,81,0.00,,,0.00,,2013-11-20 17:22:00,
2013-11-20 08:42:00,7.0,2.0,30.08,East,86,2.0,6.0,81,0.00,,,0.00,,2013-11-20 17:42:00,
2013-11-20 08:52:00,7.0,2.0,30.08,East,83,1.0,6.0,81,0.00,,,0.00,,2013-11-20 17:52:00,
2013-11-20 09:12:00,6.0,2.0,30.08,East,94,1.0,6.0,82,0.00,,,0.00,,2013-11-20 18:12:00,
2013-11-20 09:21:00,6.0,2.0,30.09,East,91,0.0,5.0,83,0.00,,,0.00,,2013-11-20 18:21:00,
2013-11-20 09:42:00,6.0,2.0,30.08,ENE,65,1.0,6.0,83,0.00,,,0.00,,2013-11-20 18:42:00,
2013-11-20 09:52:00,6.0,2.0,30.09,East,86,2.0,8.0,83,0.00,,,0.00,,2013-11-20 18:52:00,
2013-11-20 10:21:00,6.0,2.0,30.09,East,88,2.0,6.0,83,0.00,,,0.00,,2013-11-20 19:21:00,
2013-11-20 10:41:00,6.0,2.0,30.09,East,84,1.0,5.0,83,0.00,,,0.00,,2013-11-20 19:41:00,
2013-11-20 10:52:00,6.0,2.0,30.09,East,92,1.0,6.0,83,0.00,,,0.00,,2013-11-20 19:52:00,
2013-11-20 11:11:00,6.0,2.0,30.09,East,88,2.0,7.0,83,0.00,,,0.00,,2013-11-20 20:11:00,
2013-11-20 11:21:00,6.0,2.0,30.09,East,82,3.0,10.0,82,0.00,,,0.00,,2013-11-20 20:21:00,
2013-11-20 11:42:00,7.0,3.0,30.09,East,81,3.0,7.0,82,0.00,,,0.00,,2013-11-20 20:42:00,
2013-11-20 11:52:00,8.0,4.0,30.09,ENE,77,3.0,9.0,82,0.00,,,0.00,,2013-11-20 20:52:00,
2013-11-20 12:21:00,9.0,4.0,30.09,ENE,72,6.0,12.0,80,0.00,,,0.00,,2013-11-20 21:21:00,
2013-11-20 12:43:00,9.0,4.0,30.08,NE,55,6.0,10.0,81,0.00,,,0.00,,2013-11-20 21:43:00,
2013-11-20 12:53:00,9.0,5.0,30.08,ENE,77,2.0,10.0,82,0.00,,,0.00,,2013-11-20 21:53:00,
2013-11-20 13:13:00,10.0,6.0,30.07,East,96,6.0,13.0,83,0.00,,,0.00,,2013-11-20 22:13:00,
2013-11-20 13:42:00,12.0,7.0,30.07,ENE,69,5.0,16.0,79,0.00,,,0.00,,2013-11-20 22:42:00,
2013-11-20 13:53:00,11.0,6.0,30.07,East,93,4.0,12.0,79,0.00,,,0.00,,2013-11-20 22:53:00,
2013-11-20 14:21:00,11.0,4.0,30.06,East,80,5.0,10.0,74,0.00,,,0.00,,2013-11-20 23:21:00,
2013-11-20 14:42:00,11.0,3.0,30.06,NE,52,3.0,13.0,69,0.00,,,0.00,,2013-11-20 23:42:00,
2013-11-20 14:52:00,11.0,3.0,30.06,NE,55,4.0,12.0,69,0.00,,,0.00,,2013-11-20 23:52:00,
2013-11-20 15:11:00,11.0,3.0,30.05,East,85,6.0,14.0,68,0.00,,,0.00,,2013-11-21 00:11:00,
2013-11-20 15:21:00,11.0,3.0,30.05,ENE,58,3.0,10.0,68,0.00,,,0.00,,2013-11-21 00:21:00,
2013-11-20 15:42:00,11.0,3.0,30.04,East,90,5.0,12.0,68,0.00,,,0.00,,2013-11-21 00:42:00,
2013-11-20 15:52:00,11.0,3.0,30.04,NNE,13,2.0,12.0,68,0.00,,,0.00,,2013-11-21 00:52:00,
2013-11-20 16:11:00,12.0,3.0,30.03,NE,45,5.0,14.0,66,0.00,,,0.00,,2013-11-21 01:11:00,
2013-11-20 16:21:00,12.0,3.0,30.03,NE,49,5.0,12.0,67,0.00,,,0.00,,2013-11-21 01:21:00,
2013-11-20 16:42:00,12.0,3.0,30.02,East,94,3.0,12.0,65,0.00,,,0.00,,2013-11-21 01:42:00,
2013-11-20 16:52:00,11.0,2.0,30.03,East,96,3.0,10.0,66,0.00,,,0.00,,2013-11-21 01:52:00,
2013-11-20 17:21:00,10.0,2.0,30.02,ENE,73,1.0,6.0,68,0.00,,,0.00,,2013-11-21 02:21:00,
2013-11-20 18:21:00,10.0,2.0,30.01,East,98,0.0,3.0,69,0.00,,,0.00,,2013-11-21 03:21:00,
2013-11-20 18:43:00,10.0,2.0,30.01,East,86,1.0,12.0,69,0.00,,,0.00,,2013-11-21 03:43:00,
2013-11-20 18:53:00,10.0,2.0,30.01,East,97,0.0,5.0,69,0.00,,,0.00,,2013-11-21 03:53:00,
2013-11-20 19:13:00,10.0,2.0,30.00,NE,46,3.0,7.0,70,0.00,,,0.00,,2013-11-21 04:13:00,
2013-11-20 19:23:00,12.0,4.0,30.00,NE,40,6.0,14.0,69,0.00,,,0.00,,2013-11-21 04:23:00,
2013-11-20 19:53:00,13.0,3.0,29.99,NE,37,5.0,20.0,64,0.00,,,0.00,,2013-11-21 04:53:00,
2013-11-20 20:22:00,14.0,4.0,29.99,NE,44,7.0,18.0,63,0.00,,,0.00,,2013-11-21 05:22:00,
2013-11-20 20:42:00,14.0,4.0,29.98,NE,52,4.0,20.0,64,0.00,,,0.00,,2013-11-21 05:42:00,
2013-11-20 20:52:00,14.0,4.0,29.98,NE,35,6.0,18.0,64,0.00,,,0.00,,2013-11-21 05:52:00,
2013-11-20 21:22:00,13.0,3.0,29.98,NE,38,5.0,16.0,64,0.00,,,0.00,,2013-11-21 06:22:00,
2013-11-20 21:42:00,13.0,3.0,29.98,ENE,57,5.0,17.0,63,0.00,,,0.00,,2013-11-21 06:42:00,
2013-11-20 21:52:00,13.0,3.0,29.98,ENE,60,6.0,16.0,63,0.00,,,0.00,,2013-11-21 06:52:00,
2013-11-20 22:22:00,12.0,2.0,29.98,NE,37,4.0,10.0,64,0.00,,,0.00,,2013-11-21 07:22:00,
2013-11-20 22:52:00,12.0,3.0,29.97,ENE,59,6.0,13.0,65,0.00,,,0.00,,2013-11-21 07:52:00,
2013-11-20 23:12:00,12.0,3.0,29.98,ENE,63,2.0,10.0,65,0.00,,,0.00,,2013-11-21 08:12:00,
2013-11-20 23:21:00,12.0,3.0,29.98,NNE,16,3.0,13.0,65,0.00,,,0.00,,2013-11-21 08:21:00,
2013-11-20 23:52:00,12.0,3.0,29.98,NE,51,3.0,15.0,67,0.00,,,0.00,,2013-11-21 08:52:00,